Time,TemperatureF,DewpointF,PressureIn,WindDirection,WindDirectionDegrees,WindSpeedMPH,WindSpeedGustMPH,Humidity,HourlyPrecipIn,Conditions,Clouds,dailyrainin,SoftwareType,DateUTC
2013-03-12 05:36:00,56.9,50.4,29.51,SSE,158,1.2,1.3,79,0.00,,,0.00,WUHU216HW,2013-03-12 09:36:00,
2013-03-12 05:37:00,56.9,50.4,29.51,SSE,158,1.2,1.3,79,0.00,,,0.00,WUHU216HW,2013-03-12 09:37:00,
2013-03-12 05:42:00,56.7,50.2,29.51,SE,135,2.4,5.6,79,0.00,,,0.00,WUHU216HW,2013-03-12 09:42:00,
2013-03-12 05:47:00,56.5,50.4,29.51,SSE,164,2.5,5.6,80,0.00,,,0.00,WUHU216HW,2013-03-12 09:47:00,
2013-03-12 05:52:00,56.5,50.4,29.51,SSE,150,1.4,4.1,80,0.00,,,0.00,WUHU216HW,2013-03-12 09:52:00,
2013-03-12 05:57:00,56.3,50.6,29.51,SSE,154,2.8,4.1,81,0.00,,,0.00,WUHU216HW,2013-03-12 09:57:00,
2013-03-12 06:02:00,56.2,50.4,29.51,SE,126,1.4,4.8,81,0.00,,,0.00,WUHU216HW,2013-03-12 10:02:00,
2013-03-12 06:07:00,55.8,50.1,29.51,SSE,155,2.0,4.8,81,0.01,,,0.01,WUHU216HW,2013-03-12 10:07:00,
2013-03-12 06:12:00,55.6,49.9,29.51,SE,128,2.3,4.8,81,0.02,,,0.02,WUHU216HW,2013-03-12 10:12:00,
2013-03-12 06:17:00,55.4,49.7,29.51,SE,135,1.2,3.5,81,0.03,,,0.03,WUHU216HW,2013-03-12 10:17:00,
2013-03-12 06:22:00,55.3,49.8,29.51,ESE,108,0.5,3.5,82,0.04,,,0.04,WUHU216HW,2013-03-12 10:22:00,
2013-03-12 06:27:00,55.1,49.7,29.51,SW,219,0.9,1.9,82,0.04,,,0.04,WUHU216HW,2013-03-12 10:27:00,
2013-03-12 06:32:00,55.1,49.7,29.51,ESE,108,0.2,1.9,82,0.05,,,0.05,WUHU216HW,2013-03-12 10:32:00,
2013-03-12 06:37:00,54.9,49.8,29.51,SSE,163,0.4,1.1,83,0.06,,,0.06,WUHU216HW,2013-03-12 10:37:00,
2013-03-12 06:42:00,54.7,49.6,29.51,SW,225,0.3,1.1,83,0.08,,,0.08,WUHU216HW,2013-03-12 10:42:00,
2013-03-12 06:47:00,54.7,49.6,29.51,SSW,203,0.3,1.3,83,0.08,,,0.08,WUHU216HW,2013-03-12 10:47:00,
2013-03-12 06:52:00,54.5,49.4,29.51,SSW,203,0.0,1.3,83,0.09,,,0.09,WUHU216HW,2013-03-12 10:52:00,
2013-03-12 06:57:00,54.5,49.4,29.51,SSW,203,0.0,0.2,83,0.09,,,0.09,WUHU216HW,2013-03-12 10:57:00,
2013-03-12 07:02:00,54.4,49.3,29.50,SSW,203,0.0,0.2,83,0.10,,,0.10,WUHU216HW,2013-03-12 11:02:00,
2013-03-12 07:07:00,54.4,49.3,29.50,SSW,203,0.0,0.0,83,0.09,,,0.10,WUHU216HW,2013-03-12 11:07:00,
2013-03-12 07:12:00,54.4,49.3,29.50,SSW,203,0.0,0.0,83,0.08,,,0.10,WUHU216HW,2013-03-12 11:12:00,
2013-03-12 07:17:00,54.4,49.3,29.50,SSW,203,0.0,0.0,83,0.08,,,0.11,WUHU216HW,2013-03-12 11:17:00,
2013-03-12 07:22:00,54.4,49.3,29.50,SSW,203,0.0,0.0,83,0.08,,,0.12,WUHU216HW,2013-03-12 11:22:00,
2013-03-12 07:27:00,54.2,49.4,29.50,SSW,203,0.0,0.0,84,0.09,,,0.13,WUHU216HW,2013-03-12 11:27:00,
2013-03-12 07:32:00,54.2,49.4,29.50,SSW,203,0.0,0.0,84,0.10,,,0.15,WUHU216HW,2013-03-12 11:32:00,
2013-03-12 19:39:00,44.3,31.3,29.65,SW,225,1.0,1.1,60,0.00,,,0.15,WUHU216HW,2013-03-12 23:39:00,
2013-03-12 19:44:00,44.1,31.1,29.66,West,279,1.6,5.9,60,0.00,,,0.47,WUHU216HW,2013-03-12 23:44:00,
2013-03-12 19:49:00,44.1,31.1,29.66,West,270,1.0,5.9,60,0.00,,,0.47,WUHU216HW,2013-03-12 23:49:00,
2013-03-12 19:54:00,44.1,31.5,29.66,NNW,329,1.3,2.6,61,0.00,,,0.47,WUHU216HW,2013-03-12 23:54:00,
2013-03-12 19:59:00,43.9,31.0,29.66,North,0,2.8,4.6,60,0.00,,,0.47,WUHU216HW,2013-03-12 23:59:00,
2013-03-12 20:04:00,43.9,31.3,29.66,WNW,293,1.2,4.6,61,0.00,,,0.47,WUHU216HW,2013-03-13 00:04:00,
2013-03-12 20:09:00,43.9,31.3,29.66,West,261,1.0,3.0,61,0.00,,,0.47,WUHU216HW,2013-03-13 00:09:00,
2013-03-12 20:14:00,43.6,31.0,29.67,SW,225,4.4,7.0,61,0.00,,,0.47,WUHU216HW,2013-03-13 00:14:00,
2013-03-12 20:19:00,43.6,31.4,29.68,WNW,301,2.6,7.0,62,0.00,,,0.47,WUHU216HW,2013-03-13 00:19:00,
2013-03-12 20:24:00,43.6,31.4,29.68,West,278,1.9,5.6,62,0.00,,,0.47,WUHU216HW,2013-03-13 00:24:00,
2013-03-12 20:29:00,43.6,31.4,29.68,NW,316,2.8,5.6,62,0.00,,,0.47,WUHU216HW,2013-03-13 00:29:00,
2013-03-12 20:34:00,43.6,31.0,29.68,SSW,203,1.2,5.6,61,0.00,,,0.47,WUHU216HW,2013-03-13 00:34:00,
2013-03-12 20:39:00,43.4,31.2,29.68,NW,323,3.0,5.9,62,0.00,,,0.47,WUHU216HW,2013-03-13 00:39:00,
2013-03-12 20:44:00,43.2,31.1,29.68,NNW,330,1.5,5.9,62,0.00,,,0.47,WUHU216HW,2013-03-13 00:44:00,
2013-03-12 20:49:00,43.2,30.6,29.68,West,268,3.1,6.5,61,0.00,,,0.47,WUHU216HW,2013-03-13 00:49:00,
2013-03-12 20:54:00,43.2,31.1,29.68,South,180,1.2,6.5,62,0.00,,,0.47,WUHU216HW,2013-03-13 00:54:00,
2013-03-12 20:59:00,43.0,30.9,29.68,NNW,341,3.7,7.6,62,0.00,,,0.47,WUHU216HW,2013-03-13 00:59:00,
2013-03-12 21:04:00,42.8,30.2,29.68,NW,325,2.6,7.6,61,0.00,,,0.47,WUHU216HW,2013-03-13 01:04:00,
2013-03-12 21:09:00,42.8,30.7,29.68,North,355,4.3,7.6,62,0.00,,,0.47,WUHU216HW,2013-03-13 01:09:00,
2013-03-12 21:14:00,42.8,30.7,29.68,NW,318,1.5,7.6,62,0.00,,,0.47,WUHU216HW,2013-03-13 01:14:00,
2013-03-12 21:19:00,42.7,30.5,29.68,SW,225,2.4,4.8,62,0.00,,,0.47,WUHU216HW,2013-03-13 01:19:00,
2013-03-12 21:24:00,42.5,30.3,29.69,WNW,293,4.4,5.6,62,0.00,,,0.47,WUHU216HW,2013-03-13 01:24:00,
2013-03-12 21:29:00,42.3,30.2,29.68,NW,315,3.0,5.6,62,0.00,,,0.47,WUHU216HW,2013-03-13 01:29:00,
2013-03-12 21:34:00,42.3,30.2,29.69,North,0,7.9,8.6,62,0.00,,,0.47,WUHU216HW,2013-03-13 01:34:00,
2013-03-12 21:39:00,42.3,30.2,29.69,NNW,343,1.4,8.6,62,0.00,,,0.47,WUHU216HW,2013-03-13 01:39:00,
2013-03-12 21:44:00,42.3,30.2,29.69,West,274,2.3,8.6,62,0.00,,,0.47,WUHU216HW,2013-03-13 01:44:00,
2013-03-12 21:53:00,42.1,29.6,29.70,West,270,5.2,6.5,61,0.00,,,0.47,WUHU216HW,2013-03-13 01:53:00,
2013-03-12 21:58:00,41.9,29.4,29.69,NNW,333,4.0,7.0,61,0.00,,,0.47,WUHU216HW,2013-03-13 01:58:00,
2013-03-12 22:03:00,41.8,29.3,29.69,NW,315,1.8,8.3,61,0.00,,,0.47,WUHU216HW,2013-03-13 02:03:00,
2013-03-12 22:08:00,41.6,28.7,29.69,NW,310,5.2,8.3,60,0.00,,,0.47,WUHU216HW,2013-03-13 02:08:00,
2013-03-12 22:13:00,41.4,28.6,29.69,WNW,293,4.6,8.3,60,0.00,,,0.47,WUHU216HW,2013-03-13 02:13:00,
2013-03-12 22:18:00,41.4,28.6,29.69,NNW,338,5.2,7.2,60,0.00,,,0.47,WUHU216HW,2013-03-13 02:18:00,
2013-03-12 22:23:00,41.4,28.2,29.69,WNW,285,5.1,7.6,59,0.00,,,0.47,WUHU216HW,2013-03-13 02:23:00,
2013-03-12 22:28:00,41.4,28.6,29.69,North,356,3.9,7.6,60,0.00,,,0.47,WUHU216HW,2013-03-13 02:28:00,
2013-03-12 22:34:00,41.4,28.6,29.70,WNW,293,4.0,10.2,60,0.00,,,0.47,WUHU216HW,2013-03-13 02:34:00,
2013-03-12 22:39:00,41.4,28.6,29.70,NNW,334,1.8,10.2,60,0.00,,,0.47,WUHU216HW,2013-03-13 02:39:00,
2013-03-12 22:44:00,41.4,28.6,29.70,ESE,113,1.0,4.8,60,0.00,,,0.47,WUHU216HW,2013-03-13 02:44:00,
2013-03-12 22:49:00,41.2,28.5,29.70,ESE,113,1.8,3.0,60,0.00,,,0.47,WUHU216HW,2013-03-13 02:49:00,
2013-03-12 22:54:00,41.0,28.3,29.71,WNW,293,0.8,2.6,60,0.00,,,0.47,WUHU216HW,2013-03-13 02:54:00,
2013-03-12 22:59:00,41.0,28.6,29.71,NW,315,1.2,4.1,61,0.00,,,0.47,WUHU216HW,2013-03-13 02:59:00,
2013-03-12 23:05:00,41.0,28.6,29.71,WNW,289,1.4,5.6,61,0.00,,,0.47,WUHU216HW,2013-03-13 03:05:00,
2013-03-12 23:10:00,41.0,28.6,29.71,North,0,2.0,5.6,61,0.00,,,0.47,WUHU216HW,2013-03-13 03:10:00,
2013-03-12 23:15:00,41.0,28.3,29.71,NNW,345,2.1,4.8,60,0.00,,,0.47,WUHU216HW,2013-03-13 03:15:00,
2013-03-12 23:20:00,41.0,28.3,29.71,NW,315,4.0,4.8,60,0.00,,,0.47,WUHU216HW,2013-03-13 03:20:00,
2013-03-12 23:25:00,41.0,28.3,29.70,SSW,192,2.2,4.3,60,0.00,,,0.47,WUHU216HW,2013-03-13 03:25:00,